STARLINK-35463, 66463

Orbit data source: Space-Track

STARLINK-35463, 66463 is a payload satellite owned by SpaceX/Seattle (US) in LEO that was launched on Sat, 15 Nov 2025 UTC via an FALCON 9 launch vehicle from the Air Force Eastern Test Range (AFETR). Payload-class satellites include a variety of spacecraft equipped with specific instruments for various scientific and technological missions. These include communications satellites like Starlink; space stations such as the ISS; scientific satellites like the Hubble; Earth observation satellites from companies like Planet Labs, Umbra, and HawkEye 360; GPS; miniature CubeSats for education and research; and military/defense satellites.

Loading next visibility...
Identifier
66463, 2025-262H
Orbit
LEO
Country
Flag of USUS
Related business
Manufacturer
SpaceX/Seattle
Mission
Operational Commercial Communications
Bus & Motor
STARLINK V2MO, Unknown motor
Mass
575 kg wet, ~530 kg dry
Launch date (UTC)
2025-11-15 (7 months ago)
Launch vehicle
FALCON 9
Launch site
Air Force Eastern Test Range (AFETR)
Object type
Payload
Rocket body
Debris
Shape & HBR
Box + 2 Pan, 17.7 m
Radar Cross Section
36.964 m², Large (>1 m²)

Expand to show TLE details & history
Last TLE update: 17 hours ago

TLE from 17 hours ago
0 STARLINK-35463
1 66463U 25262H   26171.13835258  .00020161  00000-0  73902-3 0  9998
2 66463  43.0025  77.6802 0001780 275.3937  84.6712 15.27629642 34574
Epoch: 2026-06-20T03:19Z
TLE epoch observation values (Epoch: 2026-06-20T03:19:13.662Z)
Latitude
-0.00001°
Longitude
119.51599°
Altitude
482.563 km
Speed
7.626 km/s
True Right ascension
05h 10m 43s
True Declination
0° 00' 00"
Sunlit
Object was in daylight at epoch
Visualization orbit readout
Latitude
Unknown
Longitude
Unknown
Altitude
Unknown
Speed
Unknown
Apparent Right ascension
Unknown
Apparent Declination
Unknown
Sunlit
N/A
Visualization observer readout
Local Sidereal Time
07:17:24
Azimuth
Unknown
Elevation
Unknown
Doppler factor
Unknown
Orbital elements
Apogee altitude
486.067 km
Perigee altitude
483.624 km
Semi-major axis
6,862.982 km
Eccentricity
0.00018
Inclination
43.0025°
RAAN
77.6802°
Arg. of periapsis
275.3937°
True anomaly
84.69151°
Mean anomaly
84.6712°
Eccentric anomaly
84.68135°
Mean motion
3.81745 °/min
Orbital period
94.3 mins
BSTAR
0.00073902
Loading maneuver chart data...
Computing Atmospheric mass density...
Loading historical data...
Loading historical data...
Loading historical data...
Loading historical data...
Loading historical data...
Loading historical data...
Loading historical data...

Documentation

Showing up to 5 results
|